Wetbulb
52.48 53.11 53.17 52.46 52.41 52.23 52.34 52.65 54.20 55.39 56.16 56.54 56.48 55.89 55.07 55.05 54.35 53.66 52.70 52.21 51.35 50.09
54.01 52.96 52.42 53.13 52.97 53.04 52.92 53.56 53.42 54.63 55.93 55.33 55.21 55.12 54.24 54.98 54.10 53.25 53.54 52.35 51.38 49.17
53.04 53.62 53.19 53.03 52.93 53.13 53.64 53.87 54.34 54.97 55.22 54.48 54.09 54.23 54.43 54.86 53.74 52.08 52.10 51.45 50.36 49.59
53.29 54.01 54.72 55.05 55.07 54.56 54.47 54.44 55.44 56.11 56.22 55.58 55.04 54.38 53.67 53.81 51.54 50.60 50.24 49.19 49.12 48.61
55.25 55.58 55.67 55.95 56.26 56.52 55.37 55.46 55.72 56.16 56.08 55.67 54.96 53.43 52.69 51.48 49.86 49.48 47.89 47.67 47.37 45.98
55.32 55.54 55.56 55.42 55.73 55.61 55.58 55.49 56.04 56.50 56.08 56.04 53.49 52.05 51.65 51.05 49.14 48.66 48.37 46.99 46.46 45.78
55.55 55.94 55.60 54.11 53.96 55.07 55.63 55.98 56.14 56.28 54.82 52.83 51.20 50.48 49.43 48.50 47.06 46.82 47.11 46.97 46.30 44.27
55.60 56.09 55.46 54.25 54.31 54.21 54.45 55.45 54.87 52.20 50.19 48.56 48.00 47.24 47.02 46.46 45.18 44.35 44.64 44.59 44.14 43.11
54.05 54.22 54.03 52.60 51.69 51.69 50.77 50.23 49.79 48.76 47.91 46.52 45.30 40.55 41.62 43.86 44.51 44.57 43.25 39.74 36.76 35.84
51.30 50.29 49.27 48.54 47.64 47.09 46.03 45.63 44.38 44.54 44.31 43.44 43.04 41.09 40.94 40.61 43.11 41.72 38.76 35.44 33.34 32.43
49.55 47.96 47.06 46.68 45.79 44.00 43.98 43.41 43.04 42.68 42.85 42.37 40.59 38.57 37.99 36.97 36.32 33.82 32.76 32.21 31.18 30.42
48.39 46.61 46.03 44.29 43.04 42.70 42.27 42.09 42.07 42.54 42.13 40.63 38.15 36.29 35.17 34.09 31.69 29.95 28.98 28.83 28.97 28.25
47.35 46.14 43.84 42.24 41.89 42.60 42.57 41.29 38.53 37.08 38.27 36.85 35.79 35.13 34.18 31.97 29.60 27.24 26.37 26.49 27.07 27.48
44.84 43.36 42.56 41.77 42.08 41.58 37.23 34.35 32.42 30.74 31.12 31.54 32.23 32.51 32.63 31.64 28.92 27.24 26.07 24.62 23.53 24.02
MSLP
1014.03 1014.54 1015.16 1015.56 1015.92 1016.34 1016.48 1016.81 1017.05 1017.33 1017.27 1017.47 1017.62 1017.88 1018.21 1018.86 1019.33 1019.96 1020.26 1020.43 1020.92 1021.15
1013.65 1014.49 1014.89 1015.20 1015.49 1015.70 1015.88 1016.26 1016.45 1016.44 1016.66 1016.77 1017.01 1017.40 1017.88 1018.44 1018.69 1018.89 1019.19 1018.97 1020.02 1020.61
1013.17 1013.73 1014.11 1014.45 1014.69 1014.70 1014.79 1015.06 1015.32 1015.51 1015.65 1015.76 1016.18 1016.72 1017.45 1017.86 1018.07 1018.55 1018.65 1018.85 1019.16 1019.63
1012.43 1012.83 1012.99 1013.06 1013.03 1013.01 1013.43 1013.81 1014.12 1014.29 1014.72 1015.23 1015.58 1015.79 1016.00 1016.91 1017.32 1017.73 1018.21 1018.55 1018.86 1018.87
1010.92 1011.35 1011.14 1010.89 1011.31 1012.15 1012.89 1012.97 1013.33 1013.94 1014.42 1014.40 1014.62 1014.99 1015.44 1015.93 1016.42 1016.75 1017.67 1017.99 1018.50 1018.61
1010.05 1010.26 1009.84 1010.13 1010.89 1011.51 1012.05 1012.56 1012.93 1013.11 1013.50 1014.00 1014.42 1014.73 1014.87 1015.56 1015.96 1016.30 1016.96 1017.54 1017.83 1018.83
1009.19 1009.18 1009.72 1010.23 1010.63 1010.98 1011.41 1011.82 1012.14 1012.35 1012.71 1013.07 1013.70 1014.20 1014.55 1015.22 1015.65 1016.23 1016.75 1017.30 1017.93 1018.55
1007.82 1008.31 1008.90 1009.32 1009.95 1010.64 1010.89 1011.11 1011.41 1012.00 1012.38 1012.79 1013.33 1013.87 1014.40 1015.06 1015.75 1016.38 1016.82 1017.74 1018.41 1018.91
1007.64 1008.23 1008.67 1009.21 1009.67 1010.11 1010.46 1010.87 1011.26 1011.71 1012.13 1012.86 1013.24 1013.71 1014.27 1014.88 1015.81 1016.34 1017.01 1018.05 1018.79 1019.38
1007.50 1008.22 1008.77 1009.32 1009.81 1010.22 1010.53 1010.96 1011.42 1011.86 1012.37 1012.86 1013.18 1013.97 1014.63 1015.16 1015.95 1016.67 1017.37 1018.06 1019.27 1019.61
1007.57 1008.23 1008.82 1009.45 1009.94 1010.47 1011.00 1011.31 1011.67 1012.14 1012.59 1013.10 1013.80 1014.49 1015.11 1015.53 1016.28 1017.14 1018.01 1018.76 1019.26 1020.08
1007.82 1008.50 1009.19 1009.90 1010.40 1010.85 1011.31 1011.83 1012.33 1012.83 1013.21 1013.71 1014.81 1015.34 1015.69 1016.26 1017.28 1018.18 1019.11 1019.81 1020.21 1020.75
1008.02 1008.67 1009.42 1010.03 1010.72 1011.23 1011.73 1012.47 1013.14 1013.81 1014.41 1015.01 1015.76 1016.25 1016.70 1017.10 1017.83 1018.78 1019.62 1020.40 1020.91 1021.36
1008.49 1009.16 1009.91 1010.63 1011.22 1011.77 1012.62 1013.53 1014.34 1015.02 1015.85 1016.25 1016.66 1017.25 1017.57 1018.05 1018.48 1019.19 1020.02 1020.59 1021.17 1021.54
Wind_Speed
8 7 6 5 4 4 5 5 7 9 9 11 10 10 9 7 8 7 6 9 9 7
8 7 6 7 5 5 5 4 6 7 8 7 7 7 7 7 8 8 9 11 9 6
7 7 6 6 8 8 8 8 8 9 9 8 6 7 8 7 7 8 6 6 9 9
7 8 9 12 14 14 11 12 12 12 11 10 11 11 11 11 9 9 8 7 9 8
16 15 20 19 18 12 13 12 13 11 12 13 12 12 13 11 10 10 9 9 8 7
17 18 18 16 15 10 12 11 12 14 11 10 8 9 8 9 8 9 10 9 9 8
18 20 11 6 8 12 13 13 12 10 9 8 7 7 7 6 6 7 7 7 6 8
19 17 11 9 9 8 9 8 6 5 5 6 6 5 7 7 7 7 7 6 6 5
10 9 8 5 6 6 5 6 7 6 8 6 4 10 10 10 8 9 9 9 10 11
8 7 6 6 6 5 5 6 6 6 7 6 7 11 12 12 8 8 9 11 9 9
8 7 6 6 5 6 4 6 6 6 7 8 7 13 14 15 11 10 10 9 9 9
7 7 7 7 7 6 7 7 6 6 8 10 9 15 16 14 10 11 10 8 7 7
7 8 8 8 8 5 7 8 8 10 10 12 10 14 15 12 8 10 7 8 9 11
8 9 9 8 7 8 10 10 10 11 10 11 10 11 15 12 6 6 5 5 5 3
Wind_Direction
195 204 214 207 192 209 203 197 182 200 200 208 204 203 195 203 208 198 211 221 214 216
191 194 192 201 201 204 202 197 195 198 207 208 207 201 189 208 207 196 204 212 208 210
186 187 199 202 214 208 206 196 193 196 198 196 183 183 196 217 205 208 216 206 199 203
180 197 204 213 219 221 211 202 206 207 200 202 206 198 190 209 192 197 203 194 202 206
193 208 221 222 231 230 217 205 202 196 215 218 202 193 197 200 192 189 197 194 188 183
215 229 240 227 224 204 210 208 206 211 214 213 193 197 191 203 196 193 196 183 173 180
214 229 240 220 193 194 201 206 216 206 201 177 174 185 171 178 163 159 162 161 174 165
212 217 216 196 198 204 204 210 208 176 149 147 160 163 158 153 148 142 133 118 119 88
200 190 188 168 159 164 164 159 158 165 161 162 144 140 134 136 140 138 134 115 105 96
160 159 146 131 135 144 134 122 122 128 133 133 118 134 131 123 121 118 109 120 117 104
135 131 126 133 131 119 125 134 134 130 124 114 107 115 116 108 105 95 95 100 108 116
137 134 133 135 132 123 119 108 103 103 106 108 109 110 103 102 96 93 87 84 86 102
129 134 126 114 111 95 101 92 84 71 72 84 94 100 103 104 109 108 109 102 91 84
103 104 107 101 106 105 96 92 84 83 69 74 80 85 95 99 97 110 106 106 100 86